Regional Weather Roundup
Issued by NWS Newport/Morehead, NC

Current Version | Previous Version | Graphics & Text | Print | Product List | Glossary Off
Versions: 1 2 3 4 5 6 7 8 9 10 11 12 13 14 15 16 17 18 19 20 21 22 23 24 25 26 27 28 29 30 31 32 33 34 35 36 37 38 39 40 41 42 43 44 45 46 47 48 49 50

937
ASUS42 KMHX 060125
RWRMHX
WEATHER ROUNDUP FOR EASTERN NORTH CAROLINA
NATIONAL WEATHER SERVICE NEWPORT/MOREHEAD CITY NC
900 PM EDT THU MAY 05 2016

NOTE: "FAIR" INDICATES FEW OR NO CLOUDS BELOW 12,000 FEET
WITH NO SIGNIFICANT WEATHER AND/OR OBSTRUCTIONS TO VISIBILITY

NCZ015>017-031-032-045>047-102-103-060200-
NORTH COAST

CITY           SKY/WX    TMP DP  RH WIND       PRES   REMARKS
EDENTON        DRIZZLE   52  52 100 NE6       29.63F
ELIZABETH CITY HVY RAIN  51  49  92 NE14      29.64R FOG
KITTY HAWK     DRIZZLE   50  49  97 N7        29.62R
MANTEO         CLOUDY    50  50  97 N13       29.63R

$$

NCZ045>047-081-094-103-104-060200-
CENTRAL COAST

CITY           SKY/WX    TMP DP  RH WIND       PRES   REMARKS
FRISCO         CLOUDY    53  51  93 N8G18     29.58S
SWANQUARTER    NOT AVBL

$$

NCZ095-097-098-100-101-060200-
SOUTHERN COAST

CITY           SKY/WX    TMP DP  RH WIND       PRES   REMARKS
BEAUFORT       CLOUDY    56  52  86 N8        29.62R
CEDAR ISLAND   NOT AVBL
JACKSONVILLE   CLOUDY    56  53  90 W3        29.63R
PINEY ISLAND   CLOUDY   N/A N/A N/A N12       29.61R
WILMINGTON     MOCLDY    58  47  66 W12       29.64R


$$

NCZ011>013-027>030-043-044-078>080-089-090>093-098-060200-
COASTAL PLAIN

CITY           SKY/WX    TMP DP  RH WIND       PRES   REMARKS
AHOSKIE        RAIN      51  49  95 NW3       29.62R
CLINTON        PTCLDY    53  50  89 W5        29.66R
ELIZABETHTOWN  CLEAR     55  46  72 NW7       29.66S
GOLDSBORO      CLOUDY    55  55 100 NW8       29.61R
GREENVILLE     CLOUDY    54  52  94 CALM      29.66R
HAVELOCK       CLOUDY    56  52  86 NW6       29.64R
KENANSVILLE    CLOUDY    55  49  81 CALM      29.65R
KINSTON        CLOUDY    55  54  94 CALM      29.63R
NEW BERN       LGT RAIN  55  52  89 CALM      29.64R
RICHLANDS      LGT RAIN  55  54  96 CALM      29.64R
ROCKY MOUNT    LGT RAIN  53  53 100 NE5       29.63R FOG
WASHINGTON     MOCLDY    52  50  93 CALM      29.63R
WHITEVILLE     NOT AVBL

$$

AMZ130-135-150-152-154-156-158-170-250-252-270-ANZ085-086-088-633-658-670-060200-
MARINE OBSERVATIONS

STATION/POSITION TIME  TEMP    WIND        PRES    WAVE   SWELL
                       AIR SEA DIR/SP/G            HT/PER HT/PER
                 (UTC) (F)     (DEG/KT/KT) (MB)    (FT/S) (FT/S)
CHESAPEAKE LIGHT 0100   50      20/ 18/ 20 1004.0
64 E VA BEACH    0050   50 51   10/ 21/ 23 1000.1    7/ 7
DUCK             0100   51 62              1000.9
2 E DUCK         0011      60                N/A     6/ 7
OREGON INLET     0100   51 61              1002.5
13E OREGON INLT  0100      55                N/A     8/ 7   5/ 7
HATTERAS CG      0100   56 67              1001.2
DIAMOND BUOY     0050   57 76   10/ 21/ 25 1001.0    5/ 8   2/16
CAPE LOOKOUT     0100   57     350/ 11/ 12 1002.6
BEAUFORT LAB     0100   58 66              1002.2
30 SE NEW RVR IN 0025      73                N/A     6/ 5
27 SE WRIGHTSVLE 0108   62 72  320/ 12/ 19 1003.2
5 SE WRIGHTSVLE  0008   62 69  320/ 14/ 17 1003.4
225 S CAPE HAT   0050   71 74  260/ 21/ 27 1004.0   10/ 8   2/15
41 SE CHARLESTON 0050   67 74  310/ 19/ 23 1004.7    5/ 5

$$




USA.gov is the U.S. government's official web portal to all federal, state and local government web resources and services.